This demonstration page uses our WeatherBlox Daily Observations layout. Learn more.

Left ArrowRight Arrow

31.84235, -102.49876

Hourly Observations for March 4, 2018

Temp ( °F °C ) Dew Point ( °F °C ) Humidity (%) Winds ( mph kmh ) Pressure ( in mb ) Visibility ( mi km ) Precip ( " mm )
12:53 am 00:53 Clear 60 15.6 56 13.3 86 86 SSE 10 17 29.91 1013 10 16 0.00 0.00
1:11 am 01:11 Mostly Cloudy 60 15.6 57 13.9 90 90 S 10 17 29.94 1014 10 16 0.00 0.00
1:53 am 01:53 Cloudy 61 16.1 57 13.9 87 87 S 10 17 29.90 1013 10 16 0.00 0.00
2:12 am 02:12 Cloudy 62 16.7 57 13.9 84 84 S 12 19 29.91 1013 10 16 0.00 0.00
2:53 am 02:53 Cloudy 63 17.2 58 14.4 84 84 S 13 20 29.88 1012 10 16 0.00 0.00
3:36 am 03:36 Cloudy 63 17.2 58 14.4 84 84 S 14 22 29.88 1012 10 16 0.00 0.00
3:53 am 03:53 Cloudy 63 17.2 58 14.4 84 84 S 20 31 29.85 1011 10 16 0.00 0.00
4:39 am 04:39 Cloudy 62 16.7 58 14.4 86 86 S 16 26 29.88 1012 10 16 0.00 0.00
4:53 am 04:53 Cloudy 62 16.7 58 14.4 86 86 S 14 22 29.85 1011 10 16 0.00 0.00
5:53 am 05:53 Mostly Cloudy 60 15.6 57 13.9 90 90 S 13 20 29.84 1011 9 14 0.00 0.00
5:57 am 05:57 Partly Cloudy 60 15.6 57 13.9 90 90 S 9 15 29.85 1011 9 14 0.00 0.00
6:53 am 06:53 Clear 59 15 57 13.9 93 93 SSW 12 19 29.85 1011 7 11 0.00 0.00
7:37 am 07:37 Partly Cloudy with Mist and Fog 59 15 57 13.9 93 93 SW 10 17 29.91 1013 5 8 0.00 0.00
7:53 am 07:53 Sunny with Mist and Fog 59 15 57 13.9 93 93 SSW 15 24 29.87 1012 6 10 0.00 0.00
8:26 am 08:26 Mostly Sunny 61 16.1 57 13.9 87 87 SW 15 24 29.88 1012 7 11 0.00 0.00
8:53 am 08:53 Sunny 63 17.2 57 13.9 81 81 SW 16 26 29.88 1012 9 14 0.00 0.00
9:53 am 09:53 Sunny 67 19.4 52 11.1 59 59 SW 12 19 29.89 1012 10 16 0.00 0.00
10:53 am 10:53 Sunny 73 22.8 44 6.7 35 35 WSW 13 20 29.89 1012 10 16 0.00 0.00
11:53 am 11:53 Sunny 77 25 18 -7.8 11 11 WSW 12 19 29.85 1011 10 16 0.00 0.00
12:53 pm 12:53 Sunny 80 26.7 7 -13.9 6 6 SW 24 39 29.82 1010 10 16 0.00 0.00
1:53 pm 13:53 Sunny 81 27.2 8 -13.3 6 6 WSW 18 30 29.79 1009 10 16 0.00 0.00
2:53 pm 14:53 Sunny 82 27.8 -2 -18.9 4 4 W 20 31 29.76 1008 10 16 0.00 0.00
3:53 pm 15:53 Sunny 84 28.9 -7 -21.7 3 3 W 21 33 29.74 1007 10 16 0.00 0.00
4:53 pm 16:53 Sunny 83 28.3 -11 -23.9 2 2 W 23 37 29.74 1007 10 16 0.00 0.00
5:53 pm 17:53 Sunny 80 26.7 -16 -26.7 2 2 W 14 22 29.75 1007 10 16 0.00 0.00
6:53 pm 18:53 Clear 73 22.8 -10 -23.3 3 3 WNW 8 13 29.76 1008 10 16 0.00 0.00
7:53 pm 19:53 Clear 68 20 -6 -21.1 5 5 W 5 7 29.77 1008 10 16 0.00 0.00
8:53 pm 20:53 Clear 70 21.1 -9 -22.8 4 4 W 13 20 29.78 1009 10 16 0.00 0.00
9:53 pm 21:53 Clear 65 18.3 -6 -21.1 5 5 WSW 8 13 29.79 1009 10 16 0.00 0.00
10:53 pm 22:53 Clear 64 17.8 -6 -21.1 6 6 W 9 15 29.78 1008 10 16 0.00 0.00
11:41 pm 23:41 Clear 66 18.9 -10 -23.3 4 4 SSW 14 22 29.80 1009 10 16 0.00 0.00
11:53 pm 23:53 Clear 65 18.3 -8 -22.2 5 5 SSW 14 22 29.80 1009 10 16 0.00 0.00

Powered by AerisWeather